Date,TemperatureHighF,TemperatureAvgF,TemperatureLowF,DewpointHighF,DewpointAvgF,DewpointLowF,HumidityHigh,HumidityAvg,HumidityLow,PressureMaxIn,PressureMinIn,WindSpeedMaxMPH,WindSpeedAvgMPH,GustSpeedMaxMPH,PrecipitationSumIn
2013-3-1,62.3,44.7,27.4,32.5,25.0,14.9,63,48,30,30.13,30.01,16,3,16,0.00
2013-3-2,63.9,48.2,34.9,33.0,28.8,23.0,65,49,29,30.08,29.74,15,3,15,0.00
2013-3-3,56.9,39.2,28.8,35.3,27.9,16.0,87,65,41,29.78,29.43,19,2,19,0.00
2013-3-4,33.1,24.7,15.1,16.9,13.7,6.4,75,63,45,30.22,29.78,19,5,19,0.00
2013-3-5,36.5,21.4,8.6,23.9,13.4,2.3,82,71,56,30.20,29.93,6,1,6,0.00
2013-3-6,38.3,27.3,16.4,27.3,19.9,11.2,83,74,61,29.93,29.62,5,1,5,0.00
2013-3-7,55.8,39.1,27.0,31.7,24.6,16.8,83,61,23,29.91,29.67,10,2,10,0.00
2013-3-8,48.6,37.2,28.8,31.1,26.9,21.3,79,67,49,29.90,29.74,7,1,7,0.00
2013-3-9,50.4,35.1,23.9,29.0,20.2,14.6,85,58,28,30.11,29.80,14,2,14,0.00
2013-3-10,59.6,39.3,20.0,27.9,19.3,12.1,77,49,22,30.11,29.84,13,2,13,0.00
2013-3-11,48.8,41.8,33.1,28.2,23.9,16.1,62,49,34,30.10,29.84,16,4,16,0.00
2013-3-12,44.5,36.5,31.7,22.7,20.4,18.9,60,52,42,29.93,29.91,8,1,8,0.00
2013-3-13,70.4,50.9,30.4,33.7,26.2,19.1,65,42,21,29.99,29.91,16,4,16,0.00
2013-3-14,69.8,52.4,35.8,37.3,28.8,23.9,66,43,22,30.03,29.80,16,2,16,0.00
2013-3-15,67.9,51.7,36.2,32.3,27.0,18.8,69,41,17,29.97,29.75,17,3,17,0.00
2013-3-16,52.4,36.7,26.1,31.3,25.6,20.4,81,66,42,29.96,29.58,8,2,9,0.00
2013-3-17,45.2,34.3,24.5,30.8,18.8,9.6,82,57,24,29.82,29.39,19,4,22,0.00
2013-3-18,46.1,30.5,15.1,19.7,11.4,6.1,72,48,20,29.86,29.70,19,3,19,0.00
2013-3-19,42.7,33.5,24.8,27.4,19.5,14.0,78,57,42,30.16,29.86,10,2,10,0.00
2013-3-20,59.9,36.1,16.9,28.0,18.8,9.3,76,53,28,30.07,29.46,9,1,9,0.00
2013-3-21,49.7,40.2,30.6,33.1,19.3,7.6,82,47,22,29.79,29.45,13,3,13,0.00
2013-3-22,34.4,27.5,18.7,26.8,15.1,5.9,85,60,38,30.03,29.77,10,2,10,0.00
2013-3-23,37.4,24.8,13.7,14.6,10.2,6.9,77,56,31,30.14,30.02,10,1,10,0.00
2013-3-24,36.5,24.4,12.6,14.8,9.7,5.0,75,55,31,30.19,30.11,9,1,10,0.00
2013-3-25,52.2,30.3,11.0,21.9,11.1,2.8,74,49,24,30.16,29.90,9,1,9,0.00
2013-3-26,56.3,38.9,23.6,25.7,16.3,7.6,60,42,27,29.91,29.82,10,1,10,0.00
2013-3-27,65.0,43.2,22.3,28.9,19.4,10.8,65,42,21,29.93,29.81,9,1,9,0.00
2013-3-28,68.4,47.6,30.2,32.8,24.2,16.5,62,42,23,29.97,29.87,8,1,8,0.00
2013-3-29,64.8,48.8,38.3,42.7,29.3,22.1,72,48,30,30.00,29.89,15,2,16,0.00
2013-3-30,63.0,50.1,37.8,36.6,27.9,19.7,76,47,21,30.05,29.95,13,3,13,0.00
2013-3-31,61.4,46.8,31.3,30.8,23.8,18.3,63,42,26,30.02,29.88,13,3,13,0.00